FW3731 Weather Reports


Display with metric or nautical units.
time (UTC)temp
F
wind
direction
speed
MPH
gust
MPH
rain 1hr
in
rain 24hr
in
rain mn
in
humidity
%
barometer
mb
20260505024547 73 207 0.0 3.0 0.00 0.00 0.00 61 1004.4
20260505023044 74 145 0.0 5.0 0.00 0.00 0.00 59 1004.2
20260505021537 74 178 0.0 6.0 0.00 0.00 0.00 60 1003.9
20260505020037 74 209 0.0 3.0 0.00 0.00 0.00 60 1003.6
20260505014558 75 224 1.0 6.0 0.00 0.00 0.00 60 1003.3
20260505013036 75 276 0.0 2.0 0.00 0.00 0.00 59 1003.3
20260505011541 76 239 0.0 4.0 0.00 0.00 0.00 58 1003.1
20260505010035 76 197 0.0 3.0 0.00 0.00 0.00 58 1002.6
20260505004534 76 131 0.0 4.0 0.00 0.00 0.00 58 1002.5
20260505003034 77 172 1.0 5.0 0.00 0.00 0.00 57 1002.4
20260505001538 78 238 0.0 7.0 0.00 0.00 0.00 57 1002.5
20260505000032 78 271 1.0 10.0 0.00 0.00 0.00 56 1002.3
20260504234531 79 103 2.0 8.0 0.00 0.00 0.00 54 1002.4
20260504233030 79 224 5.0 11.0 0.00 0.00 0.00 53 1002.4
20260504231529 80 232 4.0 10.0 0.00 0.00 0.00 53 1002.6
20260504230028 81 227 1.0 8.0 0.00 0.00 0.00 51 1002.7
20260504224535 81 211 3.0 12.0 0.00 0.00 0.00 51 1002.5
20260504223027 82 188 3.0 9.0 0.00 0.00 0.00 50 1002.5
20260504221527 82 357 5.0 11.0 0.00 0.00 0.00 49 1002.4
20260504220025 82 207 7.0 19.0 0.00 0.00 0.00 48 1002.4
20260504214526 81 244 7.0 17.0 0.00 0.00 0.00 49 1002.6
20260504213024 82 237 4.0 11.0 0.00 0.00 0.00 49 1002.8
20260504211521 82 131 5.0 15.0 0.00 0.00 0.00 49 1002.7
20260504210033 82 230 6.0 17.0 0.00 0.00 0.00 50 1002.8
20260504204529 82 151 5.0 15.0 0.00 0.00 0.00 48 1002.9
20260504203024 83 156 6.0 14.0 0.00 0.00 0.00 47 1003.0
20260504201515 82 215 6.0 14.0 0.00 0.00 0.00 49 1003.2
20260504200013 81 142 2.0 13.0 0.00 0.00 0.00 53 1003.4
20260504194514 81 179 5.0 17.0 0.00 0.00 0.00 50 1003.4
20260504193012 81 153 6.0 13.0 0.00 0.00 0.00 50 1003.6
20260504191509 81 226 4.0 12.0 0.00 0.00 0.00 52 1003.7
20260504190006 79 243 2.0 11.0 0.00 0.00 0.00 55 1003.8
20260504184505 77 329 7.0 15.0 0.00 0.00 0.00 56 1003.6
20260504183008 76 295 4.0 13.0 0.00 0.00 0.00 56 1003.3
20260504181502 77 174 8.0 18.0 0.00 0.00 0.00 54 1003.4
20260504180121 77 206 3.0 16.0 0.00 0.00 0.00 54 1004.1
20260504174558 77 160 4.0 15.0 0.00 0.00 0.00 54 1004.0
20260504173107 76 208 3.0 14.0 0.00 0.00 0.00 53 1004.5
20260504171601 77 239 3.0 13.0 0.00 0.00 0.00 51 1004.7
20260504081544 67 211 1.0 8.0 0.00 0.00 0.00 60 1007.6
20260504050020 68 229 2.0 10.0 0.00 0.00 0.00 58 1008.7
20260504044522 68 136 1.0 8.0 0.00 0.00 0.00 58 1008.7
20260504043016 68 236 2.0 6.0 0.00 0.00 0.00 59 1008.9
20260504041534 68 246 1.0 6.0 0.00 0.00 0.00 59 1009.2
20260504040020 68 176 1.0 5.0 0.00 0.00 0.00 59 1009.3
20260504034511 68 189 1.0 4.0 0.00 0.00 0.00 58 1009.5
20260504033010 69 224 1.0 3.0 0.00 0.00 0.00 56 1009.7
20260504031511 69 182 1.0 5.0 0.00 0.00 0.00 55 1009.8
20260504030009 70 216 1.0 5.0 0.00 0.00 0.00 54 1009.9